When you browse on this site, cookies collect data to enhance your experience and personalize the content and advertising you see.
Visit our Privacy Policy to learn more. By continuing to use the site, you agree to this use of cookies and data.
  • In Österreich
  • Länderverzeichnis
  • Für 7 Tage
  • Wassertemperatur
  • Wetterkarte
  • News
  • Widgets
  • user-avatar
    Anmelden

    Stündliche Wetter Rocha

    Heute, 11 Dezember, Mittwoch

    Zeit Temperatur Niederschläge Wind Luftdruck Luftfeuchtigkeit
    00:00 +24°C° 0 mm 2 m/S 752 mmHg 52%
    01:00 +22°C° 0 mm 3 m/S 752 mmHg 53%
    02:00 +22°C° 0 mm 3 m/S 752 mmHg 54%
    03:00 +22°C° 0 mm 3 m/S 752 mmHg 53%
    04:00 +22°C° 0 mm 3 m/S 752 mmHg 52%
    05:00 +22°C° 0 mm 3 m/S 752 mmHg 51%
    06:00 +26°C° 0 mm 4 m/S 752 mmHg 46%
    07:00 +29°C° 0 mm 4 m/S 752 mmHg 42%
    08:00 +32°C° 0 mm 5 m/S 752 mmHg 38%
    09:00 +34°C° 0 mm 5 m/S 752 mmHg 35%
    10:00 +36°C° 0 mm 5 m/S 752 mmHg 31%
    11:00 +37°C° 0 mm 5 m/S 752 mmHg 28%
    12:00 +37°C° 0 mm 5 m/S 751 mmHg 28%
    13:00 +37°C° 0 mm 5 m/S 751 mmHg 28%
    14:00 +37°C° 0 mm 5 m/S 750 mmHg 28%
    15:00 +36°C° 0.1 mm 4 m/S 749 mmHg 31%
    16:00 +35°C° 0.1 mm 3 m/S 749 mmHg 34%
    17:00 +34°C° 0.1 mm 2 m/S 748 mmHg 37%
    18:00 +31°C° 0 mm 2 m/S 749 mmHg 42%
    19:00 +28°C° 0 mm 2 m/S 749 mmHg 48%
    20:00 +26°C° 0 mm 2 m/S 750 mmHg 53%
    21:00 +25°C° 0.1 mm 2 m/S 750 mmHg 57%
    22:00 +24°C° 0.1 mm 2 m/S 750 mmHg 61%
    23:00 +22°C° 0.1 mm 3 m/S 749 mmHg 65%

    Morgen, 12 Dezember, Donnerstag

    Zeit Temperatur Niederschläge Wind Luftdruck Luftfeuchtigkeit
    00:00 +21°C° 0 mm 2 m/S 749 mmHg 69%
    01:00 +21°C° 0 mm 2 m/S 749 mmHg 72%
    02:00 +20°C° 0 mm 2 m/S 749 mmHg 75%
    03:00 +20°C° 0.3 mm 2 m/S 749 mmHg 81%
    04:00 +19°C° 0.3 mm 3 m/S 749 mmHg 88%
    05:00 +19°C° 0.3 mm 3 m/S 749 mmHg 94%
    06:00 +21°C° 0.2 mm 3 m/S 749 mmHg 87%
    07:00 +22°C° 0.2 mm 3 m/S 749 mmHg 81%
    08:00 +25°C° 0.2 mm 3 m/S 749 mmHg 75%
    09:00 +28°C° 0 mm 4 m/S 749 mmHg 60%
    10:00 +32°C° 0 mm 6 m/S 749 mmHg 46%
    11:00 +35°C° 0 mm 8 m/S 749 mmHg 32%
    12:00 +33°C° 0 mm 9 m/S 749 mmHg 33%
    13:00 +31°C° 0 mm 10 m/S 750 mmHg 35%
    14:00 +28°C° 0 mm 11 m/S 750 mmHg 37%
    15:00 +24°C° 0 mm 10 m/S 751 mmHg 45%
    16:00 +22°C° 0 mm 9 m/S 751 mmHg 53%
    17:00 +20°C° 0 mm 8 m/S 752 mmHg 61%
    18:00 +18°C° 0 mm 7 m/S 753 mmHg 62%
    19:00 +16°C° 0 mm 6 m/S 754 mmHg 64%
    20:00 +15°C° 0 mm 5 m/S 755 mmHg 65%
    21:00 +15°C° 0 mm 5 m/S 755 mmHg 66%
    22:00 +14°C° 0 mm 5 m/S 756 mmHg 67%
    23:00 +14°C° 0 mm 5 m/S 756 mmHg 68%

    übermorgen, 13 Dezember, Freitag

    Zeit Temperatur Niederschläge Wind Luftdruck Luftfeuchtigkeit
    00:00 +14°C° 0 mm 5 m/S 756 mmHg 68%
    01:00 +13°C° 0 mm 5 m/S 756 mmHg 68%
    02:00 +13°C° 0 mm 4 m/S 756 mmHg 68%
    03:00 +12°C° 0 mm 4 m/S 757 mmHg 70%
    04:00 +12°C° 0 mm 4 m/S 757 mmHg 71%
    05:00 +12°C° 0 mm 4 m/S 757 mmHg 73%
    06:00 +14°C° 0 mm 5 m/S 758 mmHg 64%
    07:00 +16°C° 0 mm 5 m/S 759 mmHg 54%
    08:00 +19°C° 0 mm 6 m/S 759 mmHg 45%
    09:00 +20°C° 0 mm 5 m/S 759 mmHg 41%
    10:00 +21°C° 0 mm 5 m/S 760 mmHg 37%
    11:00 +22°C° 0 mm 5 m/S 760 mmHg 33%
    12:00 +22°C° 0 mm 5 m/S 760 mmHg 33%
    13:00 +22°C° 0 mm 5 m/S 759 mmHg 33%
    14:00 +22°C° 0 mm 4 m/S 759 mmHg 34%
    15:00 +21°C° 0 mm 4 m/S 759 mmHg 37%
    16:00 +20°C° 0 mm 4 m/S 759 mmHg 41%
    17:00 +19°C° 0 mm 4 m/S 758 mmHg 45%
    18:00 +17°C° 0 mm 4 m/S 759 mmHg 52%
    19:00 +14°C° 0 mm 3 m/S 759 mmHg 58%
    20:00 +12°C° 0 mm 3 m/S 759 mmHg 65%
    21:00 +12°C° 0 mm 3 m/S 759 mmHg 68%
    22:00 +11°C° 0 mm 3 m/S 759 mmHg 71%
    23:00 +12°C° 0 mm 2 m/S 759 mmHg 73%

    14 Dezember, Samstag

    Zeit Temperatur Niederschläge Wind Luftdruck Luftfeuchtigkeit
    00:00 +11°C° 0 mm 3 m/S 759 mmHg 73%
    01:00 +11°C° 0 mm 3 m/S 759 mmHg 73%
    02:00 +12°C° 0 mm 4 m/S 759 mmHg 72%
    03:00 +12°C° 0 mm 4 m/S 759 mmHg 71%
    04:00 +13°C° 0 mm 5 m/S 759 mmHg 70%
    05:00 +13°C° 0 mm 5 m/S 759 mmHg 69%
    06:00 +16°C° 0 mm 6 m/S 759 mmHg 61%
    07:00 +19°C° 0 mm 6 m/S 759 mmHg 53%
    08:00 +22°C° 0 mm 7 m/S 759 mmHg 45%
    09:00 +24°C° 0 mm 7 m/S 758 mmHg 39%
    10:00 +28°C° 0 mm 6 m/S 757 mmHg 33%
    11:00 +30°C° 0 mm 6 m/S 757 mmHg 28%
    12:00 +32°C° 0 mm 6 m/S 756 mmHg 26%
    13:00 +33°C° 0 mm 6 m/S 755 mmHg 25%
    14:00 +34°C° 0 mm 6 m/S 755 mmHg 24%
    15:00 +33°C° 0 mm 5 m/S 754 mmHg 27%
    16:00 +33°C° 0 mm 5 m/S 754 mmHg 30%
    17:00 +32°C° 0 mm 5 m/S 754 mmHg 33%
    18:00 +29°C° 0 mm 5 m/S 754 mmHg 41%
    19:00 +26°C° 0 mm 4 m/S 754 mmHg 50%
    20:00 +23°C° 0 mm 4 m/S 754 mmHg 58%
    21:00 +22°C° 0 mm 4 m/S 754 mmHg 66%
    22:00 +21°C° 0 mm 4 m/S 754 mmHg 74%
    23:00 +19°C° 0 mm 4 m/S 755 mmHg 82%

    15 Dezember, Sonntag

    Zeit Temperatur Niederschläge Wind Luftdruck Luftfeuchtigkeit
    00:00 +19°C° 0 mm 3 m/S 754 mmHg 85%
    01:00 +19°C° 0 mm 3 m/S 754 mmHg 88%
    02:00 +18°C° 0 mm 2 m/S 754 mmHg 92%
    03:00 +18°C° 0 mm 2 m/S 754 mmHg 92%
    04:00 +19°C° 0 mm 1 m/S 754 mmHg 92%
    05:00 +19°C° 0 mm 1 m/S 754 mmHg 92%
    06:00 +21°C° 0 mm 1 m/S 755 mmHg 82%
    07:00 +23°C° 0 mm 2 m/S 755 mmHg 71%
    08:00 +26°C° 0 mm 2 m/S 755 mmHg 61%
    09:00 +27°C° 0 mm 2 m/S 755 mmHg 57%
    10:00 +28°C° 0 mm 3 m/S 755 mmHg 53%
    11:00 +28°C° 0 mm 4 m/S 755 mmHg 49%
    12:00 +28°C° 0 mm 5 m/S 755 mmHg 49%
    13:00 +27°C° 0 mm 5 m/S 755 mmHg 50%
    14:00 +26°C° 0 mm 6 m/S 754 mmHg 50%
    15:00 +24°C° 0 mm 6 m/S 754 mmHg 53%
    16:00 +23°C° 0 mm 6 m/S 755 mmHg 56%
    17:00 +22°C° 0 mm 5 m/S 755 mmHg 58%
    18:00 +21°C° 0 mm 5 m/S 755 mmHg 66%
    19:00 +19°C° 0 mm 4 m/S 755 mmHg 74%
    20:00 +18°C° 0 mm 3 m/S 755 mmHg 82%
    21:00 +17°C° 0 mm 3 m/S 755 mmHg 82%
    22:00 +17°C° 0 mm 3 m/S 755 mmHg 83%
    23:00 +16°C° 0 mm 3 m/S 756 mmHg 83%

    16 Dezember, Montag

    Zeit Temperatur Niederschläge Wind Luftdruck Luftfeuchtigkeit
    00:00 +16°C° 0 mm 2 m/S 755 mmHg 85%
    01:00 +15°C° 0 mm 2 m/S 755 mmHg 87%
    02:00 +15°C° 0 mm 2 m/S 755 mmHg 89%
    03:00 +15°C° 0 mm 2 m/S 755 mmHg 89%
    04:00 +15°C° 0 mm 2 m/S 755 mmHg 89%
    05:00 +15°C° 0 mm 2 m/S 755 mmHg 89%
    06:00 +18°C° 0 mm 3 m/S 755 mmHg 77%
    07:00 +21°C° 0 mm 4 m/S 756 mmHg 66%
    08:00 +23°C° 0 mm 5 m/S 756 mmHg 55%
    09:00 +25°C° 0 mm 5 m/S 756 mmHg 49%
    10:00 +27°C° 0 mm 5 m/S 756 mmHg 43%
    11:00 +28°C° 0 mm 5 m/S 756 mmHg 37%
    12:00 +27°C° 0 mm 5 m/S 756 mmHg 40%
    13:00 +27°C° 0 mm 5 m/S 756 mmHg 43%
    14:00 +26°C° 0 mm 6 m/S 756 mmHg 46%
    15:00 +25°C° 0 mm 5 m/S 755 mmHg 48%
    16:00 +25°C° 0 mm 5 m/S 755 mmHg 49%
    17:00 +23°C° 0 mm 4 m/S 755 mmHg 51%
    18:00 +20°C° 0 mm 4 m/S 755 mmHg 63%
    19:00 +18°C° 0 mm 3 m/S 756 mmHg 75%
    20:00 +16°C° 0 mm 2 m/S 756 mmHg 87%
    21:00 +16°C° 0 mm 2 m/S 756 mmHg 89%
    22:00 +15°C° 0 mm 2 m/S 756 mmHg 91%
    23:00 +15°C° 0 mm 2 m/S 756 mmHg 92%
    Mehr zeigen